Regional Weather Roundup
Issued by NWS

Home | Current Version | Previous Version | Graphics & Text | Print | Product List | Glossary On
Versions: 1 2 3 4 5 6 7 8 9 10 11 12 13 14 15 16 17 18 19 20 21 22 23 24 25 26 27 28 29 30 31 32 33 34 35 36 37 38 39 40 41 42 43 44 45 46 47 48 49 50
000
ASUS43 KOAX 191510
RWRNE

WEATHER ROUNDUP FOR NEBRASKA
NATIONAL WEATHER SERVICE OMAHA NE
1000 AM CDT SUN OCT 19 2014

NOTES: SATELLITE DATA IS BEING USED TO AUGMENT CLOUD COVER ABOVE
       12000 FEET.
       "FAIR" INDICATES FEW OR NO CLOUDS BELOW 12,000 FEET WITH NO
       SIGNIFICANT WEATHER AND/OR OBSTRUCTIONS TO VISIBILITY.

  * THESE STATIONS DO NOT REPORT WEATHER SUCH AS RAIN...SNOW OR FOG.

NEZ001>004-019>022-054>056-191600-
NEBRASKA PANHANDLE

CITY           SKY/WX    TMP DP  RH WIND       PRES   REMARKS
SCOTTSBLUFF    SUNNY     47  40  76 NW10      30.09R
ALLIANCE       SUNNY     46  40  79 NW3       30.07R
CHADRON        SUNNY     48  42  80 SW5       30.08R
KIMBALL        SUNNY     56  33  41 NW8       30.09R
SIDNEY         SUNNY     51  38  60 NW7       30.09R
$$

NEZ057>060-069>072-079>082-191600-
SOUTHWEST NEBRASKA

CITY           SKY/WX    TMP DP  RH WIND       PRES   REMARKS
NORTH PLATTE   SUNNY     49  41  74 SW5       30.04R
IMPERIAL       SUNNY     47  40  76 NW5       30.04R
LEXINGTON      SUNNY     54  45  72 SW12      30.04S
MCCOOK         SUNNY     49  42  77 S3        30.05R
OGALLALA       SUNNY     47  42  85 CALM      30.04S
$$

NEZ005>010-023>029-035>040-094-191600-
NORTH CENTRAL NEBRASKA

CITY           SKY/WX    TMP DP  RH WIND       PRES   REMARKS
VALENTINE      SUNNY     53  42  66 W9        30.01R
AINSWORTH      SUNNY     53  42  66 W7        29.99S
BROKEN BOW     MOSUNNY   51  43  74 SW6       30.02S
O`NEILL        SUNNY     54  46  74 SW10      29.98F
ORD            SUNNY     51  43  74 S13       30.01S
THEDFORD       SUNNY     52  43  70 W9        30.02S
$$

NEZ041-046>049-061>064-073>077-083>087-191600-
SOUTH CENTRAL NEBRASKA

CITY           SKY/WX    TMP DP  RH WIND       PRES   REMARKS
GRAND ISLAND   SUNNY     55  43  63 SW17G23   30.04S
AURORA         SUNNY     53  42  66 SW13      30.05S
HASTINGS       FAIR      52  42  69 S12G22    30.05F
HEBRON         MOSUNNY   54  43  68 S14       30.09F
HOLDREGE       SUNNY     50  43  78 S10G16    30.05F
KEARNEY *      SUNNY     52  43  71 S14       30.06R
YORK           SUNNY     52  45  76 SW14G20   30.06S
$$

NEZ011>018-030>034-042>045-191600-
NORTHEAST NEBRASKA

CITY           SKY/WX    TMP DP  RH WIND       PRES   REMARKS
NORFOLK        PTSUNNY   54  43  66 SW15G22   30.00F
ALBION         MOSUNNY   53  42  68 SW5       30.02S
BLAIR          SUNNY     53  44  72 S13       30.06F
COLUMBUS *     MOSUNNY   54  41  62 SW13G20   30.05F
FREMONT        SUNNY     52  44  72 S8        30.06S
TEKAMAH        SUNNY     54  44  69 S15       30.04F
WAYNE          PTSUNNY   54  42  65 SW13G21   30.01S
$$

NEZ050>053-065>068-078-088>093-191600-
SOUTHEAST NEBRASKA

CITY           SKY/WX    TMP DP  RH WIND       PRES   REMARKS
LINCOLN        SUNNY     55  43  63 SW17G26   30.08F
OMAHA EPPLEY   PTSUNNY   52  43  71 S10       30.09S
BEATRICE       SUNNY     51  45  78 SW10      30.11S
FALLS CITY     SUNNY     53  46  77 S12       30.13S
NEBRASKA CITY  SUNNY     51  44  77 SW13      30.11S
PLATTSMOUTH    SUNNY     50  43  77 S13       30.09S
$$

NEZ044-045-051>053-067-191600-
OMAHA AREA

CITY           SKY/WX    TMP DP  RH WIND       PRES   REMARKS
OMAHA EPPLEY   PTSUNNY   52  43  71 S10       30.09S
BLAIR          SUNNY     53  44  72 S13       30.06F
FREMONT        SUNNY     52  44  72 S8        30.06S
MILLARD        SUNNY     53  44  73 S9        30.08S
OFFUTT AFB     SUNNY     52  51  99 S10       30.09S
PLATTSMOUTH    SUNNY     50  43  77 S13       30.09S
WAHOO          FAIR      53  43  67 SW9G17    30.07S
$$



USA.gov is the U.S. government's official web portal to all federal, state and local government web resources and services.